Regional Weather Roundup
Issued by NWS Sioux Falls, SD

Home | Current Version | Previous Version | Text Only | Print | Product List | Glossary On
Versions: 1 2 3 4 5 6 7 8 9 10 11 12 13 14 15 16 17 18 19 20 21 22 23 24 25 26 27 28 29 30 31 32 33 34 35 36 37 38 39 40 41 42 43 44 45 46 47 48 49 50
000
ASUS43 KFSD 060610
RWRFSD

WEATHER ROUNDUP FOR SE SOUTH DAKOTA/SW MINNESOTA/NW IOWA
NATIONAL WEATHER SERVICE SIOUX FALLS SD
1200 AM CST FRI MAR 06 2015

NOTE: "FAIR" INDICATES FEW OR NO CLOUDS BELOW 12,000 FEET WITH NO
SIGNIFICANT WEATHER AND OR OBSTRUCTIONS TO VISIBILITY.


SDZ038>040-050-052>070-060700-
SOUTHEAST SOUTH DAKOTA

CITY           SKY/WX    TMP DP  RH WIND       PRES   REMARKS
CHAMBERLAIN    CLEAR     25  17  71 W6        30.11F WCI  18
6HR MIN TEMP:  20; 6HR MAX TEMP:  37;

HURON          CLEAR     20   7  57 S6        30.10F WCI  12
6HR MIN TEMP:  20; 6HR MAX TEMP:  33;

MADISON        FAIR      18   9  68 S10       30.11F WCI   6
MITCHELL       CLEAR     22   9  57 S6        30.13F WCI  14
6HR MIN TEMP:  20; 6HR MAX TEMP:  35;

SIOUX FALLS    CLEAR     22   8  55 S14       30.15F WCI   9
6HR MIN TEMP:  22; 6HR MAX TEMP:  28;

WINNER         FAIR      30  18  60 W10       30.13F WCI  21
YANKTON        CLEAR     28   7  40 S6        30.18F WCI  22
$$

MNZ071-072-080-081-089-090-097-098-060700-
SOUTHWEST MINNESOTA

CITY           SKY/WX    TMP DP  RH WIND       PRES   REMARKS
FAIRMONT       CLEAR     12   3  67 S17       30.23F WCI  -5
JACKSON        CLEAR     18   7  62 S16       30.21F WCI   3
LUVERNE        CLEAR     18   9  68 S6        30.18F WCI   9
MARSHALL       CLEAR     19   7  58 SW25G32   30.13F WCI   2
6HR MIN TEMP:  14; 6HR MAX TEMP:  21;

MONTEVIDEO     CLEAR     14   7  73 SW8       30.15F WCI   3
PIPESTONE      CLEAR     16   7  67 S12       30.14F WCI   3
REDWOOD FALLS  FAIR      14   6  70 S14       30.19F WCI  -1
TRACY          CLEAR     20   9  60 S22G29    30.14F WCI   4
WINDOM         CLEAR     18   7  62 S14       30.18F WCI   4
WORTHINGTON    CLEAR     16   5  62 S18       30.19F WCI  -1
$$

IAZ001>003-012>014-020>022-031-032-NEZ013-014-SDZ071-060700-
NORTHWEST IOWA

CITY           SKY/WX    TMP DP  RH WIND       PRES   REMARKS
CHEROKEE       MOCLDY    19   8  61 S10       30.25F WCI   7
DENISON        CLOUDY    21   7  53 S16G22    30.26F WCI   7
ESTHERVILLE    CLEAR     12   5  73 S18       30.23F WCI  -6
LE MARS        MOCLDY    23   9  54 S17       30.21F WCI   9
ORANGE CITY    CLEAR     19   9  63 S10       30.19F WCI   8
SHELDON        CLEAR     18   7  62 S14       30.19F WCI   4
SIOUX CITY     MOCLDY    23   9  55 MISG      30.25F
6HR MIN TEMP:  23; 6HR MAX TEMP:  31;

SPENCER        CLEAR     16   5  62 S14       30.23F WCI   2
6HR MIN TEMP:  15; 6HR MAX TEMP:  20;

STORM LAKE     MOCLDY    14   5  67 S14       30.25F WCI  -1
$$

ABBREVIATIONS USED IN REMARKS
   TC - TEMPERATURE IN CELSIUS
  WCI - WIND CHILL INDEX
   HX - HEAT INDEX
  VSB - VISIBILITY




USA.gov is the U.S. government's official web portal to all federal, state and local government web resources and services.